Location: *
(2.5500°S, 65.9667°W)
Time: 10:58:03
(UTC+00:00)

Delta 142 - Pass Details

Date: 26 October 2021
Orbit: 548 x 1588 km, 28.4° (Epoch: 28 November)

Event Time Altitude Azimuth Distance (km) Brightness Sun altitude
Rises 22:52:02 0° 300° (WNW) 3,532 8.2 -10.2°
Reaches altitude 10° 22:54:56 10° 301° (WNW) 2,423 7.3 -10.9°
Maximum altitude 23:00:31 89° 24° (NNE) 689 3.7 -12.3°
Enters shadow 23:04:48 11° 120° (ESE) 1,876 5.6 -13.3°
